| time (UTC) | temp C | wind direction | speed KPH | gust KPH | rain 1hr cm | rain 24hr cm | rain mn cm | humidity % | barometer mb |
| 20260902194544 | 34 | 211 | 8.0 | 11.3 | 0.00 | 0.00 | 0.00 | 56 | 1018.2 |
| 20260902193544 | 35 | 194 | 11.3 | 16.1 | 0.00 | 0.00 | 0.00 | 54 | 1018.3 |
| 20260902192625 | 34 | 199 | 6.4 | 11.3 | 0.00 | 0.00 | 0.00 | 59 | 1018.4 |
| 20260902191525 | 33 | 207 | 8.0 | 9.7 | 0.00 | 0.00 | 0.00 | 57 | 1018.5 |
| 20260902190644 | 33 | 214 | 11.3 | 14.5 | 0.00 | 0.00 | 0.00 | 57 | 1018.5 |
| 20260902185515 | 33 | 206 | 6.4 | 9.7 | 0.00 | 0.00 | 0.00 | 60 | 1018.6 |
| 20260902184604 | 33 | 193 | 9.7 | 14.5 | 0.00 | 0.00 | 0.00 | 59 | 1018.6 |
| 20260902183525 | 33 | 229 | 9.7 | 11.3 | 0.00 | 0.00 | 0.00 | 59 | 1018.6 |
| 20260902182524 | 33 | 240 | 8.0 | 14.5 | 0.00 | 0.00 | 0.00 | 57 | 1018.8 |
| 20260902181525 | 33 | 208 | 9.7 | 17.7 | 0.00 | 0.00 | 0.00 | 61 | 1018.8 |
| 20260902180545 | 33 | 221 | 11.3 | 14.5 | 0.00 | 0.00 | 0.00 | 60 | 1018.9 |
| 20260902175525 | 33 | 191 | 9.7 | 12.9 | 0.00 | 0.00 | 0.00 | 62 | 1019.0 |
| 20260902174535 | 33 | 192 | 9.7 | 12.9 | 0.00 | 0.00 | 0.00 | 62 | 1019.1 |
| 20260902173524 | 33 | 215 | 9.7 | 17.7 | 0.00 | 0.00 | 0.00 | 61 | 1019.3 |
| 20260902172615 | 33 | 228 | 6.4 | 12.9 | 0.00 | 0.00 | 0.00 | 61 | 1019.3 |
| 20260902171525 | 33 | 187 | 9.7 | 17.7 | 0.00 | 0.00 | 0.00 | 60 | 1019.4 |
| 20260902170515 | 33 | 200 | 8.0 | 9.7 | 0.00 | 0.00 | 0.00 | 65 | 1019.5 |
| 20260902165525 | 32 | 219 | 9.7 | 16.1 | 0.00 | 0.00 | 0.00 | 64 | 1019.6 |
| 20260902164524 | 32 | 197 | 9.7 | 14.5 | 0.00 | 0.00 | 0.00 | 64 | 1019.7 |
| 20260902163525 | 32 | 211 | 8.0 | 12.9 | 0.00 | 0.00 | 0.00 | 65 | 1019.7 |
| 20260902162526 | 32 | 224 | 8.0 | 12.9 | 0.00 | 0.00 | 0.00 | 65 | 1019.8 |
| 20260902161524 | 32 | 230 | 6.4 | 12.9 | 0.00 | 0.00 | 0.00 | 66 | 1019.8 |
| 20260902160545 | 32 | 206 | 11.3 | 14.5 | 0.00 | 0.00 | 0.00 | 67 | 1019.8 |
| 20260902155525 | 32 | 207 | 9.7 | 11.3 | 0.00 | 0.00 | 0.00 | 69 | 1019.8 |
| 20260902154525 | 31 | 209 | 8.0 | 11.3 | 0.00 | 0.00 | 0.00 | 68 | 1019.8 |
| 20260902153525 | 31 | 222 | 9.7 | 12.9 | 0.00 | 0.00 | 0.00 | 69 | 1019.8 |
| 20260902152525 | 31 | 216 | 8.0 | 11.3 | 0.00 | 0.00 | 0.00 | 70 | 1019.9 |
| 20260902151525 | 31 | 220 | 6.4 | 9.7 | 0.00 | 0.00 | 0.00 | 69 | 1019.9 |
| 20260902150525 | 31 | 214 | 8.0 | 11.3 | 0.00 | 0.00 | 0.00 | 71 | 1020.0 |
| 20260902145525 | 31 | 211 | 8.0 | 11.3 | 0.00 | 0.00 | 0.00 | 70 | 1020.0 |
| 20260902144525 | 30 | 218 | 4.8 | 9.7 | 0.00 | 0.00 | 0.00 | 71 | 1020.1 |
| 20260902143525 | 30 | 206 | 6.4 | 11.3 | 0.00 | 0.00 | 0.00 | 73 | 1020.0 |
| 20260902142535 | 30 | 207 | 6.4 | 11.3 | 0.00 | 0.00 | 0.00 | 75 | 1020.0 |
| 20260902141525 | 29 | 217 | 6.4 | 9.7 | 0.00 | 0.00 | 0.00 | 75 | 1020.0 |
| 20260902140525 | 29 | 210 | 6.4 | 9.7 | 0.00 | 0.00 | 0.00 | 78 | 1019.9 |
| 20260902135525 | 28 | 209 | 4.8 | 8.0 | 0.00 | 0.00 | 0.00 | 78 | 1020.0 |
| 20260902134525 | 28 | 210 | 4.8 | 6.4 | 0.00 | 0.00 | 0.00 | 78 | 1020.1 |
| 20260902133545 | 27 | 205 | 4.8 | 6.4 | 0.00 | 0.00 | 0.00 | 81 | 1020.1 |
| 20260902132535 | 27 | 212 | 6.4 | 9.7 | 0.00 | 0.00 | 0.00 | 82 | 1020.1 |
| 20260902131525 | 27 | 202 | 4.8 | 8.0 | 0.00 | 0.00 | 0.00 | 82 | 1020.1 |
| 20260902130545 | 26 | 203 | 3.2 | 4.8 | 0.00 | 0.00 | 0.00 | 84 | 1020.0 |
| 20260902125525 | 25 | 0.0 | 0.0 | 0.00 | 0.00 | 0.00 | 91 | 1020.0 | |
| 20260902124526 | 24 | 0.0 | 0.0 | 0.00 | 0.00 | 0.00 | 96 | 1020.1 | |
| 20260902123525 | 23 | 0.0 | 0.0 | 0.00 | 0.00 | 0.00 | 97 | 1020.1 | |
| 20260902122526 | 23 | 0.0 | 0.0 | 0.00 | 0.00 | 0.00 | 98 | 1020.0 | |
| 20260902121525 | 22 | 0.0 | 0.0 | 0.00 | 0.00 | 0.00 | 99 | 1019.9 | |
| 20260902120525 | 21 | 0.0 | 0.0 | 0.00 | 0.00 | 0.00 | 99 | 1019.8 | |
| 20260902115526 | 21 | 0.0 | 0.0 | 0.00 | 0.00 | 0.00 | 99 | 1019.6 | |
| 20260902114525 | 20 | 0.0 | 0.0 | 0.00 | 0.00 | 0.00 | 99 | 1019.5 | |
| 20260902113526 | 20 | 0.0 | 0.0 | 0.00 | 0.00 | 0.00 | 99 | 1019.4 | |
| 20260902112525 | 20 | 0.0 | 0.0 | 0.00 | 0.00 | 0.00 | 99 | 1019.3 | |
| 20260902111525 | 20 | 0.0 | 0.0 | 0.00 | 0.00 | 0.00 | 99 | 1019.2 | |
| 20260902110525 | 20 | 0.0 | 0.0 | 0.00 | 0.00 | 0.00 | 99 | 1019.2 | |
| 20260902105526 | 20 | 0.0 | 0.0 | 0.00 | 0.00 | 0.00 | 99 | 1019.2 | |
| 20260902104626 | 20 | 0.0 | 0.0 | 0.00 | 0.00 | 0.00 | 99 | 1019.2 | |
| 20260902103526 | 20 | 0.0 | 0.0 | 0.00 | 0.00 | 0.00 | 99 | 1019.1 | |
| 20260902102545 | 20 | 0.0 | 0.0 | 0.00 | 0.00 | 0.00 | 99 | 1019.1 | |
| 20260902101605 | 20 | 0.0 | 0.0 | 0.00 | 0.00 | 0.00 | 99 | 1019.1 | |
| 20260902100526 | 20 | 0.0 | 0.0 | 0.00 | 0.00 | 0.00 | 99 | 1019.1 | |
| 20260902095525 | 20 | 0.0 | 0.0 | 0.00 | 0.00 | 0.00 | 99 | 1019.0 | |
| 20260902094525 | 20 | 0.0 | 0.0 | 0.00 | 0.00 | 0.00 | 99 | 1018.9 | |
| 20260902093526 | 20 | 0.0 | 0.0 | 0.00 | 0.00 | 0.00 | 99 | 1018.9 | |
| 20260902092525 | 20 | 0.0 | 0.0 | 0.00 | 0.00 | 0.00 | 99 | 1018.9 | |
| 20260902091526 | 21 | 0.0 | 0.0 | 0.00 | 0.00 | 0.00 | 99 | 1018.9 | |
| 20260902090525 | 20 | 0.0 | 0.0 | 0.00 | 0.00 | 0.00 | 99 | 1018.7 | |
| 20260902085526 | 21 | 0.0 | 0.0 | 0.00 | 0.00 | 0.00 | 99 | 1018.8 | |
| 20260902084526 | 21 | 0.0 | 0.0 | 0.00 | 0.00 | 0.00 | 99 | 1018.7 | |
| 20260902083525 | 21 | 0.0 | 0.0 | 0.00 | 0.00 | 0.00 | 99 | 1018.6 | |
| 20260902082526 | 21 | 0.0 | 0.0 | 0.00 | 0.00 | 0.00 | 99 | 1018.4 | |
| 20260902081526 | 21 | 0.0 | 0.0 | 0.00 | 0.00 | 0.00 | 99 | 1018.3 | |
| 20260902080526 | 21 | 0.0 | 0.0 | 0.00 | 0.00 | 0.00 | 99 | 1018.3 | |
| 20260902075607 | 21 | 0.0 | 0.0 | 0.00 | 0.00 | 0.00 | 99 | 1018.3 | |
| 20260902074526 | 21 | 0.0 | 0.0 | 0.00 | 0.00 | 0.00 | 98 | 1018.3 | |
| 20260902073526 | 21 | 0.0 | 0.0 | 0.00 | 0.00 | 0.00 | 98 | 1018.3 | |
| 20260902072526 | 21 | 0.0 | 0.0 | 0.00 | 0.00 | 0.00 | 98 | 1018.3 | |
| 20260902071526 | 21 | 0.0 | 0.0 | 0.00 | 0.00 | 0.00 | 98 | 1018.3 | |
| 20260902070526 | 21 | 0.0 | 0.0 | 0.00 | 0.00 | 0.00 | 98 | 1018.4 | |
| 20260902065527 | 21 | 0.0 | 0.0 | 0.00 | 0.00 | 0.00 | 98 | 1018.4 | |
| 20260902064526 | 21 | 0.0 | 0.0 | 0.00 | 0.00 | 0.00 | 98 | 1018.4 | |
| 20260902063526 | 21 | 0.0 | 0.0 | 0.00 | 0.00 | 0.00 | 98 | 1018.4 | |
| 20260902062526 | 21 | 0.0 | 0.0 | 0.00 | 0.00 | 0.00 | 98 | 1018.4 | |
| 20260902061526 | 21 | 0.0 | 0.0 | 0.00 | 0.00 | 0.00 | 98 | 1018.4 | |
| 20260902060526 | 21 | 0.0 | 0.0 | 0.00 | 0.00 | 0.00 | 98 | 1018.4 | |
| 20260902055526 | 21 | 0.0 | 0.0 | 0.00 | 0.00 | 0.00 | 98 | 1018.4 | |
| 20260902054526 | 21 | 0.0 | 0.0 | 0.00 | 0.00 | 0.00 | 98 | 1018.4 | |
| 20260902053547 | 21 | 0.0 | 0.0 | 0.00 | 0.00 | 0.00 | 98 | 1018.3 | |
| 20260902052526 | 22 | 0.0 | 0.0 | 0.00 | 0.00 | 0.00 | 97 | 1018.4 | |
| 20260902051526 | 22 | 0.0 | 0.0 | 0.00 | 0.00 | 0.00 | 97 | 1018.3 | |
| 20260902050547 | 22 | 0.0 | 0.0 | 0.00 | 0.00 | 0.00 | 97 | 1018.4 | |
| 20260902045606 | 22 | 0.0 | 0.0 | 0.00 | 0.00 | 0.00 | 97 | 1018.3 | |
| 20260902044526 | 22 | 0.0 | 0.0 | 0.00 | 0.00 | 0.00 | 97 | 1018.3 | |
| 20260902043547 | 22 | 0.0 | 0.0 | 0.00 | 0.00 | 0.00 | 97 | 1018.4 | |
| 20260902042526 | 22 | 0.0 | 0.0 | 0.00 | 0.00 | 0.00 | 97 | 1018.4 | |
| 20260902041526 | 22 | 0.0 | 0.0 | 0.00 | 0.00 | 0.00 | 97 | 1018.4 | |
| 20260902040547 | 22 | 0.0 | 0.0 | 0.00 | 0.00 | 0.00 | 96 | 1018.4 | |
| 20260902035546 | 22 | 0.0 | 0.0 | 0.00 | 0.00 | 0.00 | 96 | 1018.5 | |
| 20260902034526 | 22 | 0.0 | 0.0 | 0.00 | 0.00 | 0.00 | 96 | 1018.4 | |
| 20260902033526 | 22 | 0.0 | 0.0 | 0.00 | 0.00 | 0.00 | 96 | 1018.4 | |
| 20260902032526 | 23 | 0.0 | 0.0 | 0.00 | 0.00 | 0.00 | 96 | 1018.4 | |
| 20260902031547 | 23 | 0.0 | 0.0 | 0.00 | 0.00 | 0.00 | 96 | 1018.4 | |
| 20260902030526 | 23 | 0.0 | 0.0 | 0.00 | 0.00 | 0.00 | 95 | 1018.4 | |
| 20260902025526 | 23 | 0.0 | 0.0 | 0.00 | 0.00 | 0.00 | 95 | 1018.4 | |
| 20260902024527 | 23 | 0.0 | 0.0 | 0.00 | 0.00 | 0.00 | 95 | 1018.4 | |
| 20260902023526 | 23 | 0.0 | 0.0 | 0.00 | 0.00 | 0.00 | 95 | 1018.4 | |
| 20260902022527 | 23 | 0.0 | 0.0 | 0.00 | 0.00 | 0.00 | 95 | 1018.4 | |
| 20260902021526 | 24 | 0.0 | 0.0 | 0.00 | 0.00 | 0.00 | 94 | 1018.4 | |
| 20260902020526 | 24 | 0.0 | 0.0 | 0.00 | 0.00 | 0.00 | 94 | 1018.4 | |
| 20260902015547 | 24 | 0.0 | 0.0 | 0.00 | 0.00 | 0.00 | 93 | 1018.4 | |
| 20260902014546 | 24 | 0.0 | 0.0 | 0.00 | 0.00 | 0.00 | 93 | 1018.3 | |
| 20260902013527 | 25 | 0.0 | 0.0 | 0.00 | 0.00 | 0.00 | 92 | 1018.3 | |
| 20260902012527 | 25 | 0.0 | 0.0 | 0.00 | 0.00 | 0.00 | 92 | 1018.1 | |
| 20260902011527 | 25 | 0.0 | 0.0 | 0.00 | 0.00 | 0.00 | 92 | 1018.0 | |
| 20260902010527 | 26 | 0.0 | 0.0 | 0.00 | 0.00 | 0.00 | 92 | 1017.9 | |
| 20260902005547 | 26 | 0.0 | 0.0 | 0.00 | 0.00 | 0.00 | 90 | 1017.8 | |
| 20260902004537 | 26 | 0.0 | 0.0 | 0.00 | 0.00 | 0.00 | 89 | 1017.7 | |
| 20260902003627 | 26 | 0.0 | 0.0 | 0.00 | 0.00 | 0.00 | 88 | 1017.6 | |
| 20260902002527 | 27 | 200 | 1.6 | 3.2 | 0.00 | 0.00 | 0.00 | 87 | 1017.7 |
| 20260902001637 | 28 | 216 | 0.0 | 3.2 | 0.00 | 0.00 | 0.00 | 85 | 1017.8 |
| 20260902000527 | 28 | 0.0 | 0.0 | 0.00 | 0.00 | 0.00 | 83 | 1017.9 | |
| 20260901235526 | 28 | 182 | 1.6 | 3.2 | 0.00 | 0.00 | 0.00 | 83 | 1017.9 |
| 20260901234537 | 30 | 0.0 | 1.6 | 0.00 | 0.00 | 0.00 | 75 | 1017.9 | |
| 20260901233607 | 31 | 0.0 | 0.0 | 0.00 | 0.00 | 0.00 | 73 | 1018.1 | |
| 20260901232527 | 31 | 0.0 | 0.0 | 0.00 | 0.00 | 0.00 | 71 | 1018.1 | |
| 20260901231527 | 32 | 0.0 | 0.0 | 0.00 | 0.00 | 0.00 | 68 | 1018.1 | |
| 20260901230537 | 33 | 0.0 | 0.0 | 0.00 | 0.00 | 0.00 | 63 | 1018.1 | |
| 20260901225548 | 34 | 0.0 | 0.0 | 0.00 | 0.00 | 0.00 | 60 | 1018.0 | |
| 20260901224537 | 34 | 0.0 | 0.0 | 0.00 | 0.00 | 0.00 | 62 | 1017.9 | |
| 20260901223607 | 35 | 314 | 0.0 | 1.6 | 0.00 | 0.00 | 0.00 | 59 | 1018.0 |
| 20260901222527 | 33 | 242 | 1.6 | 4.8 | 0.00 | 0.00 | 0.00 | 62 | 1018.0 |
| 20260901221547 | 36 | 209 | 3.2 | 6.4 | 0.00 | 0.00 | 0.00 | 57 | 1017.9 |
| 20260901220537 | 36 | 223 | 3.2 | 8.0 | 0.00 | 0.00 | 0.00 | 56 | 1017.9 |
| 20260901215607 | 35 | 256 | 1.6 | 3.2 | 0.00 | 0.00 | 0.00 | 57 | 1017.8 |
| 20260901214528 | 35 | 246 | 1.6 | 4.8 | 0.00 | 0.00 | 0.00 | 58 | 1017.8 |
| 20260901213607 | 35 | 238 | 3.2 | 6.4 | 0.00 | 0.00 | 0.00 | 57 | 1017.8 |
| 20260901212547 | 35 | 214 | 6.4 | 9.7 | 0.00 | 0.00 | 0.00 | 56 | 1017.9 |
| 20260901211537 | 34 | 219 | 8.0 | 12.9 | 0.00 | 0.00 | 0.00 | 57 | 1017.9 |
| 20260901210527 | 34 | 216 | 6.4 | 9.7 | 0.00 | 0.00 | 0.00 | 58 | 1017.9 |
| 20260901205527 | 34 | 217 | 8.0 | 12.9 | 0.00 | 0.00 | 0.00 | 56 | 1018.1 |
| 20260901204547 | 33 | 229 | 9.7 | 16.1 | 0.00 | 0.00 | 0.00 | 55 | 1018.2 |
| 20260901203537 | 33 | 231 | 8.0 | 9.7 | 0.00 | 0.00 | 0.00 | 57 | 1018.2 |
| 20260901202558 | 33 | 218 | 12.9 | 17.7 | 0.00 | 0.00 | 0.00 | 56 | 1018.2 |
| 20260901201548 | 34 | 232 | 6.4 | 8.0 | 0.00 | 0.00 | 0.00 | 55 | 1018.2 |
| 20260901200528 | 34 | 212 | 9.7 | 14.5 | 0.00 | 0.00 | 0.00 | 58 | 1018.2 |
| 20260901195527 | 33 | 230 | 9.7 | 12.9 | 0.00 | 0.00 | 0.00 | 58 | 1018.3 |